Theta_e
354 362 367 368 368 366 365 364 363 362 362 361 361 361 361 361 363 363 363 363 362 363 362 360 361 359 359 358 357 356 356 355 355 354 353 353 352 352 351 349 350 344 349
357 361 366 367 367 366 364 364 363 362 362 361 361 361 361 362 364 363 363 363 363 363 363 361 359 358 357 357 355 355 354 354 354 353 353 352 352 351 349 348 350 346 348
358 361 363 366 367 366 364 363 362 362 362 361 361 361 361 362 364 363 363 363 363 363 363 361 359 358 357 355 354 354 354 353 353 353 353 346 345 350 349 347 347 347 347
360 360 361 366 366 365 364 363 362 362 362 361 361 361 361 362 362 363 363 363 363 362 361 360 359 357 355 354 353 354 354 354 354 355 352 352 342 353 351 350 348 348 348
361 360 363 366 366 365 364 362 361 361 361 361 361 361 361 362 362 362 363 362 362 359 358 358 356 354 354 354 353 352 353 354 355 354 350 346 346 352 354 353 353 351 352
360 359 363 365 365 364 364 362 361 361 361 360 361 360 361 362 362 362 362 361 360 357 355 355 354 354 353 353 352 352 352 353 352 347 350 348 353 355 353 352 354 356 355
357 360 361 364 364 364 364 363 362 361 361 361 361 360 361 361 362 362 361 361 360 357 355 354 354 354 354 352 350 350 352 353 351 351 352 351 347 352 355 356 356 358 358
357 360 359 364 363 363 363 362 361 360 360 360 360 360 360 361 361 361 361 361 360 357 355 353 353 353 353 352 350 351 353 353 350 349 348 344 349 352 353 354 356 358 358
357 359 355 358 363 363 362 361 360 359 359 359 358 358 359 360 361 361 360 360 358 356 355 353 352 351 351 351 350 350 352 353 347 344 345 348 358 360 359 360 360 358 359
355 359 353 354 356 359 360 361 360 359 359 358 358 359 359 360 360 360 358 358 357 356 354 352 351 350 350 350 350 350 351 352 344 339 349 353 359 359 357 360 360 360 358
352 357 353 352 352 350 354 359 359 360 359 358 358 358 356 353 355 355 354 357 357 355 353 352 351 351 350 350 350 350 351 340 336 338 348 357 357 356 354 354 355 356 357
349 353 352 352 349 347 348 356 355 356 355 353 353 355 350 351 350 349 355 357 355 354 353 352 352 352 350 341 341 350 343 337 338 344 345 353 355 354 352 350 350 350 349
350 354 352 353 352 347 347 349 348 349 349 348 349 350 348 350 350 350 352 349 350 352 347 348 347 346 341 342 344 339 340 339 341 347 347 350 353 351 349 347 344 344 344
349 355 354 354 354 353 349 344 346 344 345 345 347 348 348 350 350 348 351 348 348 345 345 343 343 344 345 348 347 348 346 348 347 346 345 349 351 347 344 342 343 343 346
349 356 355 355 355 357 349 346 347 345 344 345 347 347 348 350 351 350 349 345 345 344 345 346 349 348 350 351 352 350 349 347 348 345 344 348 348 347 343 341 340 341 341
350 357 358 356 357 358 352 349 352 350 349 349 348 346 349 354 353 351 356 351 349 350 348 350 354 352 351 350 349 352 350 349 349 348 345 342 347 346 342 336 334 335 336
351 358 357 358 360 356 359 353 356 353 351 351 349 349 349 357 354 353 354 352 351 361 356 356 352 354 355 349 352 351 349 349 348 347 344 341 343 344 339 336 332 331 331
351 355 359 358 359 360 365 353 355 352 352 352 352 350 352 355 355 358 353 350 353 360 358 359 355 350 346 347 347 348 346 348 344 340 342 340 341 337 336 336 333 330 329
348 356 354 358 357 357 362 355 360 365 357 353 353 351 353 353 355 353 350 354 358 357 359 355 352 349 346 348 346 346 346 343 339 338 338 337 336 337 335 335 336 336 331
337 359 359 358 359 358 359 358 357 360 355 355 352 352 353 351 353 355 355 359 360 358 354 352 348 352 350 347 343 342 340 337 337 339 336 335 335 334 334 334 333 332 335
334 359 358 358 359 358 355 354 351 352 351 356 353 355 354 353 353 354 359 359 360 353 350 352 351 349 346 346 340 338 337 337 337 338 335 337 336 335 336 333 333 328 329
326 359 359 358 359 358 355 355 353 354 351 354 355 352 352 353 353 352 359 356 356 353 351 351 349 345 344 342 334 331 328 332 336 338 338 336 335 334 334 332 330 330 326
330 358 359 358 358 358 357 356 356 357 352 352 351 350 351 351 350 359 357 356 354 352 345 345 345 343 339 338 336 330 324 321 325 336 337 336 337 334 332 330 331 326 326
323 349 359 357 357 356 358 354 352 349 344 346 348 351 351 350 350 356 355 353 348 345 344 341 341 339 335 331 334 336 334 330 322 319 330 332 334 332 331 330 323 324 325
326 346 357 355 355 357 355 354 353 349 348 349 349 351 350 350 355 350 350 347 345 342 342 341 340 338 333 334 332 331 329 328 328 322 315 318 320 321 321 321 322 317 320
327 351 357 354 355 357 354 352 353 348 346 345 349 347 346 350 350 348 346 343 341 341 338 337 333 335 334 334 330 327 325 322 319 317 313 313 313 314 317 321 318 315 319
Wind_Speed
17 18 17 18 19 18 17 17 16 15 16 15 15 15 14 13 13 14 14 14 12 10 10 9 9 9 10 11 12 12 11 10 10 12 12 12 10 8 6 6 6 9 8
23 19 16 18 19 19 18 17 17 16 16 16 15 14 13 12 13 13 14 13 11 10 10 11 10 10 10 10 10 9 8 7 6 8 9 9 10 8 5 5 8 7 6
21 18 18 17 18 19 19 17 17 17 17 16 16 14 14 12 14 14 13 12 11 11 10 10 10 10 9 9 8 7 6 4 5 7 10 8 7 9 5 4 4 3 3
19 15 16 17 18 19 19 18 18 18 18 17 16 16 14 12 14 13 12 11 11 11 11 10 10 9 9 8 7 5 4 5 6 6 7 10 9 10 7 4 1 2 2
17 15 16 17 18 19 19 18 18 18 18 17 16 16 14 13 13 13 11 11 10 11 10 10 9 8 8 8 6 4 4 6 7 8 9 4 7 7 5 4 4 5 5
18 15 18 18 18 19 19 19 18 18 18 18 17 16 14 13 12 12 11 11 10 10 10 10 9 8 7 6 5 4 5 6 8 9 8 6 8 9 5 3 6 6 5
18 17 17 19 18 19 20 20 18 18 17 17 16 15 15 13 12 11 11 11 10 10 9 9 8 6 6 5 3 3 5 7 8 10 7 8 9 9 5 3 4 9 8
19 19 17 17 18 19 20 20 20 18 17 16 16 15 14 13 12 11 11 10 10 10 9 8 7 5 4 3 2 3 7 9 9 11 7 9 9 7 6 4 5 7 10
20 20 17 16 16 18 18 19 19 18 17 16 16 15 14 13 12 12 11 10 9 9 8 8 7 5 4 4 4 5 8 11 8 8 8 6 9 8 7 6 7 7 8
18 20 18 15 16 14 14 17 18 17 17 15 15 15 14 14 14 12 11 10 10 9 8 7 7 6 6 6 6 8 8 12 9 11 5 6 10 11 14 12 10 6 6
15 19 18 16 14 14 14 13 15 16 15 15 14 15 12 8 10 11 9 12 9 8 7 7 7 8 8 9 10 11 9 5 10 4 4 10 12 13 13 12 12 10 7
18 20 18 16 16 14 13 13 11 12 9 9 10 11 8 9 8 10 11 11 9 8 7 7 8 9 8 6 6 10 4 8 9 7 5 10 10 11 10 9 9 9 8
18 17 20 17 14 15 13 9 7 6 7 7 10 10 8 8 7 6 5 5 5 7 5 7 6 6 9 8 7 7 8 10 3 4 7 9 9 9 8 6 5 5 4
19 19 21 21 16 12 12 10 9 8 8 7 9 11 6 5 6 6 7 7 6 6 8 8 6 7 10 3 3 4 3 4 2 5 3 8 9 7 6 4 5 6 6
16 17 20 20 17 11 15 11 10 10 9 10 9 10 7 7 7 6 7 8 8 8 8 8 5 4 4 4 5 5 5 5 6 3 3 5 7 7 7 4 4 6 7
13 17 19 21 17 14 13 13 9 9 11 9 10 10 10 5 7 5 5 5 6 5 5 4 5 3 1 4 2 2 3 3 5 5 4 4 6 7 6 5 3 5 7
6 19 21 20 17 15 14 13 8 9 11 9 10 13 10 6 7 5 3 3 4 4 5 5 2 2 1 2 3 3 2 1 2 4 3 4 5 7 7 6 4 2 3
7 14 22 19 19 10 9 10 7 9 10 8 9 11 10 7 7 3 4 4 3 5 3 3 2 2 1 2 3 1 1 1 4 2 4 3 5 4 4 5 4 4 3
7 15 10 20 21 16 8 7 7 7 6 8 8 10 9 8 7 4 5 3 3 4 4 3 1 2 3 4 1 2 3 1 2 3 4 3 2 3 4 6 7 7 4
11 19 19 15 17 18 13 7 7 6 7 6 8 10 11 7 9 5 3 6 3 4 3 4 5 5 2 4 5 5 3 1 2 3 1 2 2 0 3 1 1 3 8
10 22 22 19 18 14 13 11 11 9 9 5 6 14 12 7 9 5 3 6 4 4 3 3 2 5 4 4 3 5 3 3 3 2 3 5 1 1 4 4 2 1 2
15 23 23 22 21 16 13 13 12 9 10 6 7 12 12 10 9 6 7 6 6 5 5 7 6 4 4 5 3 2 2 3 1 4 4 4 5 2 4 4 3 3 2
13 23 23 23 22 19 18 13 10 7 9 6 11 10 10 12 10 7 8 7 7 6 6 5 4 4 2 3 3 3 4 3 6 2 4 2 3 3 2 4 2 2 2
20 19 24 24 23 20 20 17 17 13 13 9 12 10 9 12 10 10 9 9 9 8 7 5 6 5 4 5 3 3 3 2 2 4 3 3 3 4 5 3 4 3 6
19 19 22 22 21 21 20 19 14 13 11 9 11 15 12 10 11 13 11 12 9 8 8 8 6 4 3 5 4 3 4 3 2 3 4 6 4 5 5 5 7 5 6
16 21 23 23 21 20 21 20 15 14 16 13 14 13 11 10 10 12 12 10 10 9 9 7 6 7 6 7 4 5 3 3 4 3 3 5 5 6 5 4 4 4 4
Wind_Direction
133 139 140 136 136 135 135 131 127 125 123 121 117 116 112 108 103 105 107 107 109 112 116 117 109 93 79 71 66 66 68 73 80 90 101 106 105 103 91 66 348 107 97
136 146 143 138 139 137 138 134 131 127 126 126 123 121 119 121 115 107 106 111 118 119 126 117 108 95 86 81 79 81 85 92 112 127 128 131 130 119 98 76 45 78 75
137 143 145 139 139 140 138 136 133 132 132 130 129 129 131 133 123 116 116 120 122 121 119 117 106 97 95 95 99 105 112 155 182 173 177 167 144 138 125 94 70 76 96
136 142 142 142 142 141 139 138 137 137 136 134 138 136 140 139 127 124 123 122 121 121 119 114 107 105 104 107 113 126 157 216 234 220 216 237 147 146 151 143 160 217 232
140 151 134 144 144 143 141 139 140 139 139 140 143 141 144 142 128 129 121 118 118 118 116 113 113 116 119 122 132 157 205 248 269 281 261 111 126 136 155 182 215 229 236
144 157 140 142 143 144 141 141 141 140 143 146 146 145 145 140 130 127 120 119 120 122 120 118 119 125 127 132 149 187 240 274 297 277 257 120 96 141 160 208 261 273 262
152 143 146 142 145 146 144 142 142 143 146 148 147 147 147 142 134 128 124 125 128 125 122 124 129 137 138 147 164 234 276 287 287 289 292 102 110 149 126 62 283 270 262
155 136 145 144 146 147 148 145 145 147 150 150 146 148 146 140 134 129 128 130 128 128 133 135 140 145 144 159 183 257 287 288 297 292 304 92 105 87 57 12 320 276 266
157 141 152 155 149 148 149 146 148 150 151 150 147 148 144 139 132 129 129 130 132 138 142 148 157 161 173 187 213 247 265 284 289 286 310 95 93 75 48 9 306 282 267
162 144 156 159 160 158 155 148 150 152 148 150 147 144 143 136 132 134 137 145 152 154 153 163 170 178 198 207 217 235 257 276 271 267 79 92 85 66 43 21 358 303 286
167 141 154 161 165 168 158 155 145 146 143 145 145 143 141 154 161 158 183 151 158 156 165 182 190 199 212 223 228 230 233 250 258 226 100 101 82 67 54 39 33 30 21
167 147 156 159 167 171 160 151 157 154 160 166 163 160 171 157 182 187 142 153 159 167 184 199 211 222 226 227 222 237 238 246 255 102 114 95 89 78 66 44 39 40 41
174 157 159 154 166 177 152 155 162 158 158 170 168 169 192 157 187 142 136 159 172 189 197 198 212 227 226 226 212 198 217 234 36 82 106 105 93 86 75 51 27 25 16
177 160 155 156 164 184 135 157 162 164 159 168 172 179 199 165 173 177 160 176 188 179 212 195 203 212 235 262 239 3 12 36 26 87 115 111 110 104 87 57 23 358 352
174 153 151 155 160 182 146 160 165 167 166 169 169 186 204 178 171 201 163 179 193 192 200 207 174 157 229 220 24 31 25 353 2 100 95 125 130 121 100 62 17 17 15
173 148 143 154 161 171 158 165 169 169 169 174 166 183 215 189 169 200 173 198 193 198 161 202 146 174 339 121 40 357 328 43 16 6 145 147 151 123 124 109 63 32 20
194 150 144 152 159 171 147 167 181 174 169 181 169 173 204 185 171 193 163 226 201 97 95 94 34 132 76 89 176 220 299 342 221 47 5 153 146 156 153 144 122 65 11
104 155 149 152 149 160 147 169 188 175 167 186 163 166 188 175 173 204 153 221 221 114 114 52 43 20 200 231 205 126 271 335 63 28 256 32 160 152 168 188 187 209 236
160 151 164 151 154 145 159 172 182 163 176 179 149 156 174 165 162 180 148 192 145 101 117 122 271 134 37 330 331 174 90 273 35 4 35 22 25 78 171 202 227 239 239
184 160 162 160 161 157 164 168 193 183 191 176 154 155 158 167 153 187 189 130 115 78 84 53 40 43 6 26 338 326 113 66 182 146 240 290 171 209 284 62 258 237 208
219 165 169 170 168 165 169 176 187 192 183 181 154 141 149 156 151 184 125 109 93 101 109 71 73 91 35 21 338 307 201 143 264 282 182 242 273 136 318 255 232 360 127
227 174 171 168 171 175 177 181 184 184 176 175 135 143 150 154 147 188 128 130 118 119 92 66 49 29 37 37 354 289 32 247 234 236 236 230 229 139 280 297 4 342 359
203 174 172 171 170 178 185 180 179 167 168 164 135 145 159 144 155 139 123 127 117 112 94 97 73 86 143 132 44 101 355 347 344 36 238 269 265 218 301 309 316 18 27
204 179 171 172 170 181 184 182 185 177 171 166 147 146 143 143 170 126 124 123 121 115 117 92 60 30 16 46 297 47 229 179 278 324 341 333 349 305 306 315 343 5 354
190 171 170 173 177 175 187 185 184 176 161 152 148 139 141 139 125 115 122 119 113 101 98 103 124 111 80 78 27 338 3 359 293 6 315 343 340 343 356 1 41 19 341
189 164 167 174 178 175 184 187 184 173 161 154 141 141 145 130 128 130 122 110 112 125 133 130 143 128 90 81 55 18 20 17 1 355 334 332 328 332 346 354 27 359 339